ONEWEB-0589

operational
NORAD ID: 54655 Int'l Des: 2022-166 Owner: ONEWEBN Country: UK Constellation: oneweb
LEOCIRCULARPOLARONEWEB_TYPE

Über ONEWEB-0589

Beschreibung wird geladen...

Live-Position

3D-Globus wird geladen...

Nächste Überflüge

Höhenverlauf

Altitude vs Time

uPlot chart will show altitude changes over time

Zweizeiliger Elementsatz

1 54655U 22166P 25251.60598375 -.00000013 00000-0 -63064-4 0 9999
2 54655 87.9218 300.1839 0002758 88.2269 271.9181 13.21823289134346
Epoch: 8. Sept. 2025 • Age: 13 hours

Aktueller Status

Höhe 1189.2 km
Geschwindigkeit 7.27 km/s
Subsatellitenpunkt 80.85°N, 90.46°W
Startdatum 8. Dez. 2022
Alter 2.7 years
Typ internet

Technische Details

Klassifizierung Payload
Masse 148.00 kg
Trockenmasse 140.00 kg
Gesamtmasse 148.00 kg
Länge 1.30 m
Durchmesser 1.00 m
Spannweite 5.00 m
Form Trapezoid+2 pan
Hersteller ONEWUS
Bus-Typ ARROW
Phasenstatus In Orbit
Besitzer/Staat ONEWEBN/UK

Große Konstellationen

Loading constellations...